Tracking 19644 objects as of 26-Apr-2019
HD Live streaming from Space Station
objects crossing your sky now

SL-14 DEB

Track SL-14 DEB now!
10-day predictions


NORAD ID: 25187
Int'l Code: 1987-068N
Perigee: 816.5 km
Apogee: 834.6 km
Inclination: 82.6 °
Period: 101.3 minutes
Semi major axis: 7196 km
RCS: 0.0093 m2 (small)
Launch date: August 18, 1987
Source: Commonwealth of Independent States (former USSR) (CIS)
Launch site: PLESETSK MISSILE AND SPACE COMPLEX (PKMTR)

Note: This is SATELLITE DEBRIS
aabbcc
Your satellite tracking list
Your tracking list is empty




NASA's NSSDC Master Catalog

Two Line Element Set (TLE):
1 25187U 87068N   19115.32858762  .00001014  00000-0  45121-3 0  9992
2 25187  82.5505 335.5397 0012524 158.1760 201.9957 14.22058184 87000
Source of the keplerian elements: AFSPC